Location: *
(46.3500°N, 10.9000°E)
Time: 00:11:03
(UTC+00:00)

Cosmos 962 Rocket - Pass Details

Date: 09 April 2020
Orbit: 950 x 1000 km, 82.9° (Epoch: 30 May)

Event Time Altitude Azimuth Distance (km) Brightness Sun altitude
Rises 19:19:25 0° 352° (N) 3,655 8.1 -14.2°
Reaches altitude 10° 19:21:56 10° 353° (N) 2,699 7.3 -14.6°
Maximum altitude 19:28:07 82° 81° (E) 969 4.4 -15.5°
Enters shadow 19:34:10 10° 169° (S) 2,643 6.4 -16.4°
